RH
15 42 40 36 43 36 32 31 31 34 36 42 44 40 38 38 36 39 47 43 40 39 35 21 24 22 21 22 22 23 25 28 42 56 54 43 19 14 14 19 26 45 60 72
49 40 34 39 43 48 41 38 37 38 46 56 50 47 44 43 38 32 43 46 44 44 40 32 25 23 22 22 22 23 23 28 37 57 58 44 22 15 19 26 33 47 55 70
52 50 45 53 57 57 50 46 42 50 62 64 60 43 37 42 27 29 31 29 44 46 42 37 33 23 22 22 21 22 22 26 36 57 58 46 18 18 24 40 44 58 67 88
64 58 49 54 54 55 46 60 72 70 70 49 60 42 35 42 44 46 48 46 43 44 40 36 30 25 22 21 21 21 22 25 42 54 59 47 15 19 35 59 59 76 91 89
53 46 36 56 54 73 62 79 77 77 72 66 58 57 31 44 46 49 47 49 48 44 42 39 30 21 22 21 21 21 22 32 44 53 59 34 15 20 46 54 65 86 95 96
57 60 49 72 78 66 80 74 76 75 71 70 50 51 33 47 76 79 83 81 64 53 44 30 25 20 19 21 21 21 24 38 42 54 53 22 16 20 48 51 60 80 88 95
51 64 64 66 83 92 85 70 43 60 77 44 52 54 42 76 94 89 69 53 53 42 38 37 33 30 22 18 20 24 30 35 47 56 60 18 18 22 50 49 59 71 81 100
52 52 72 80 70 58 70 56 44 50 44 39 55 49 54 91 99 100 70 56 44 42 40 36 33 26 23 22 26 30 34 42 46 58 62 17 20 22 50 54 62 66 74 82
57 50 51 66 69 75 82 82 76 78 66 62 40 46 75 87 98 69 62 50 50 39 36 34 34 26 24 24 30 32 34 35 47 60 58 16 22 22 47 55 66 73 74 75
73 56 61 70 79 86 91 86 96 86 72 57 34 41 55 95 86 54 49 53 45 41 36 33 32 31 26 30 29 32 35 41 53 62 55 16 24 23 37 49 56 62 66 69
78 60 72 66 79 74 98 97 94 90 86 63 46 43 91 93 72 83 79 83 55 38 30 31 31 30 29 29 29 29 33 38 52 61 55 17 24 26 28 36 40 41 49 60
83 79 54 66 88 84 83 88 90 74 80 87 91 56 90 86 71 55 66 71 90 55 45 36 31 31 29 32 31 31 32 40 55 61 55 17 23 28 30 32 35 38 38 40
97 82 59 69 86 76 90 96 89 95 92 78 80 63 76 85 100 45 71 79 92 94 84 49 34 31 32 33 33 33 34 47 61 62 56 18 22 27 29 32 34 36 36 36
97 98 70 49 62 78 90 87 90 94 88 80 70 59 55 53 64 79 68 81 86 94 99 83 45 40 38 33 32 33 42 55 62 66 56 21 22 30 34 38 39 39 40 39
97 98 99 80 75 70 70 69 65 65 70 59 47 41 49 66 85 53 74 88 93 96 100 99 98 78 69 46 44 51 65 62 69 61 61 26 22 31 36 37 36 37 38 40
97 97 95 97 76 60 49 42 41 42 42 49 62 62 71 88 96 69 92 93 95 98 100 99 100 98 99 86 86 98 96 76 77 72 66 36 29 32 33 35 38 54 63 64
97 96 88 93 69 49 39 45 55 64 72 73 69 75 84 95 84 90 99 98 96 98 100 100 100 100 100 99 100 100 100 94 92 79 74 68 55 53 58 70 71 72 74 73
94 97 72 59 57 40 50 70 60 53 73 96 92 99 95 99 98 96 99 99 99 99 98 100 100 100 100 100 100 100 100 100 98 91 98 82 79 84 83 79 72 72 72 72
89 93 73 59 50 39 51 75 74 71 73 80 73 63 83 86 100 99 99 98 99 99 99 97 99 100 100 100 100 100 100 100 100 94 95 100 100 91 97 88 85 77 75 74
60 79 86 76 53 38 78 80 52 47 69 91 68 51 72 82 97 98 99 98 99 99 99 98 95 97 98 99 100 100 99 100 100 100 99 100 100 99 99 100 98 91 73 65
89 88 78 65 62 59 45 54 50 72 83 60 53 63 68 79 89 100 98 98 98 98 98 98 99 97 97 98 98 97 93 80 75 76 87 86 56 54 49 37 31 29 27 26
75 73 76 68 69 64 62 70 85 83 82 66 51 70 80 98 100 99 98 97 98 98 97 96 92 86 90 96 94 92 67 56 51 46 38 26 24 24 20 22 25 24 24 26
81 74 92 82 94 82 78 83 82 76 100 97 72 90 83 100 99 99 98 98 98 96 95 94 67 56 49 48 46 43 55 43 41 42 37 30 22 20 21 23 24 22 23 25
75 80 95 88 98 95 90 78 77 95 95 97 100 98 97 99 97 98 97 96 97 97 95 96 88 68 48 43 41 39 38 38 39 38 36 32 29 31 38 40 38 35 33 40
88 86 86 100 99 87 82 82 91 91 84 94 92 97 97 97 97 97 97 94 93 92 91 72 60 54 52 50 47 46 46 48 48 47 51 53 50 48 48 47 44 44 47 49
99 97 96 100 96 92 90 80 86 93 88 96 97 97 96 97 97 96 96 96 96 96 90 72 66 63 61 59 59 60 61 61 58 58 60 57 51 50 51 51 50 52 53 52
Wind_Speed
21 19 22 23 22 21 20 20 23 23 23 27 30 28 25 25 28 29 28 26 26 26 26 30 36 33 35 34 32 31 27 25 23 17 15 17 16 16 16 16 18 22 26 28
15 23 20 18 18 20 21 22 23 23 18 17 24 32 31 32 32 31 30 29 28 24 25 27 36 36 36 35 33 31 28 25 22 20 17 18 17 17 17 18 20 23 25 29
21 9 11 15 15 17 21 20 19 19 20 23 23 31 11 9 15 18 26 31 29 27 25 26 30 39 38 35 34 31 29 24 21 20 19 19 19 17 16 18 20 21 24 26
20 21 22 18 18 17 16 13 13 13 13 11 8 10 17 13 10 11 17 19 27 26 26 24 31 40 40 37 35 32 29 25 21 19 19 21 18 15 16 14 15 15 17 22
11 10 9 17 21 13 12 10 8 11 14 18 19 12 8 8 5 3 5 12 19 23 22 23 26 38 41 41 36 31 29 26 21 21 19 19 15 15 13 12 15 13 10 6
19 16 11 11 11 18 10 8 9 11 12 9 18 13 4 1 10 10 8 7 10 18 23 22 27 35 41 44 41 34 30 26 22 20 18 16 12 13 10 11 14 15 12 5
15 20 17 16 9 9 11 6 3 7 6 7 4 9 13 10 9 11 10 6 11 16 19 19 26 31 35 39 37 32 28 25 23 20 18 14 12 11 11 11 11 10 9 11
8 7 17 15 23 14 16 15 7 6 5 2 4 8 4 2 7 10 13 10 14 13 16 16 18 27 31 33 31 32 29 26 24 21 18 14 11 10 10 11 11 10 10 10
6 4 6 6 9 17 11 13 9 9 14 9 13 8 5 3 8 15 19 19 13 16 17 17 13 25 31 32 29 29 28 26 23 21 17 13 11 9 10 10 10 10 10 11
7 10 7 9 9 15 10 9 5 8 4 5 6 10 4 4 11 16 16 17 19 17 16 19 15 21 30 31 27 31 31 28 25 20 17 14 11 9 10 9 9 8 8 9
13 13 7 12 15 13 11 11 9 6 5 4 3 2 2 6 16 15 21 19 11 17 16 18 19 23 29 32 31 30 35 32 28 24 18 16 12 11 11 12 9 6 5 6
10 11 19 16 9 10 9 9 12 7 5 4 6 5 1 7 22 24 23 23 14 9 14 18 18 21 29 25 29 30 36 33 30 24 19 17 15 13 13 13 12 9 6 3
5 13 17 10 10 16 13 13 12 8 5 8 4 1 6 15 11 22 22 19 15 11 8 15 20 25 34 33 36 31 36 35 32 28 21 20 18 16 15 13 11 10 8 6
18 15 18 12 3 9 12 11 9 8 4 6 11 18 15 16 17 21 20 21 17 12 8 11 19 27 31 31 35 32 36 36 36 29 23 23 22 20 17 14 12 12 11 10
10 11 10 5 4 6 8 8 8 10 9 9 12 20 21 18 16 18 19 19 19 12 14 13 13 15 18 24 27 33 38 42 41 32 24 24 24 23 20 18 17 15 13 12
6 8 9 5 5 3 4 6 9 10 10 12 14 17 12 17 14 17 18 16 17 14 17 20 16 18 19 22 27 32 38 39 35 28 23 24 25 24 22 20 16 13 11 10
16 5 8 1 3 6 7 8 2 2 2 7 13 18 18 14 12 15 18 15 16 14 18 22 19 23 21 22 28 29 32 33 29 25 25 25 24 23 21 20 16 15 13 13
5 4 0 1 4 3 4 2 4 2 1 4 6 10 7 10 14 17 19 21 20 11 11 19 25 26 27 26 24 28 30 30 28 28 26 26 27 26 20 17 18 17 15 15
7 5 1 1 1 5 4 2 2 5 5 7 12 14 14 15 14 18 19 17 11 12 9 8 17 26 30 32 34 30 32 31 30 32 34 33 33 30 28 33 25 22 20 21
13 13 5 1 2 1 2 4 8 9 8 10 14 15 14 17 15 18 19 17 16 15 13 13 5 13 20 23 27 30 22 21 20 24 24 20 29 28 24 24 25 25 24 24
9 9 10 7 4 3 5 7 3 4 7 13 15 15 19 16 14 16 18 13 9 13 11 11 9 9 9 16 16 18 14 9 5 2 2 2 7 8 12 15 17 20 21 22
6 7 5 7 6 5 5 7 5 9 14 14 14 15 19 3 7 14 15 13 15 18 17 14 12 10 10 9 11 10 7 6 6 6 7 9 10 11 14 14 15 17 18 18
3 4 3 4 2 8 9 9 11 13 8 9 12 12 9 5 3 9 12 13 13 14 14 11 4 4 4 3 4 5 4 5 7 9 10 12 13 14 14 15 15 16 17 17
3 5 5 6 8 12 11 12 13 5 7 8 6 4 8 8 11 15 16 11 9 9 8 6 3 1 2 1 1 3 4 6 9 11 10 12 12 11 12 13 13 14 15 14
4 6 7 7 18 18 16 6 3 3 5 4 3 2 4 10 11 10 8 7 4 4 3 1 3 4 4 4 4 4 4 5 5 6 7 7 8 10 11 13 13 14 14 15
6 4 4 9 16 15 9 6 2 2 4 5 3 3 4 7 7 6 5 6 6 6 1 3 1 2 3 4 5 5 6 6 7 7 7 9 10 12 13 14 15 16 17 18
Wind_Direction
241 217 226 230 236 243 257 266 271 271 277 281 281 279 275 270 262 255 254 250 244 239 232 219 218 221 218 221 223 226 231 238 245 254 272 280 281 270 270 266 251 243 240 238
215 226 237 241 242 246 250 259 269 281 284 281 285 283 278 270 263 259 250 249 242 239 236 228 216 217 217 223 227 235 235 238 241 248 269 279 273 265 268 265 259 248 242 238
228 241 214 226 240 240 243 248 262 273 284 286 291 297 268 276 287 266 256 249 243 241 237 233 224 216 215 222 229 234 241 234 233 244 263 277 271 269 275 265 254 248 243 242
246 243 249 250 246 233 242 250 254 268 283 278 303 289 287 291 297 281 260 251 244 241 239 235 224 222 216 222 229 233 241 230 225 239 257 273 269 284 280 267 233 228 252 253
235 251 233 243 245 223 228 239 251 263 272 290 276 256 281 306 330 333 300 279 251 239 241 240 229 222 220 222 229 237 237 216 219 236 256 268 272 283 274 245 210 214 240 278
238 257 261 249 253 223 234 241 265 268 265 256 257 228 264 8 320 328 323 332 230 223 229 226 218 213 221 223 227 234 226 209 220 232 253 262 274 278 255 224 213 214 219 231
256 245 240 222 217 201 212 222 238 208 207 251 194 228 258 320 337 343 331 296 215 213 213 223 229 225 222 220 224 220 208 215 218 227 251 259 267 271 243 212 220 219 234 244
251 223 215 233 228 230 229 217 233 264 239 244 238 242 155 17 358 341 308 295 230 218 212 221 229 210 206 210 207 197 208 208 217 226 247 253 257 258 238 215 211 225 241 245
268 245 221 210 209 196 200 213 232 252 253 263 245 231 247 341 335 298 291 288 259 231 213 221 219 196 199 204 197 196 204 209 216 222 242 245 246 243 226 220 218 229 242 248
247 261 237 209 183 201 207 198 192 204 237 237 205 245 190 340 331 317 317 274 254 231 224 219 216 192 190 200 214 201 207 208 210 224 236 234 232 228 218 213 219 235 242 245
219 233 218 214 210 212 201 213 206 209 244 295 299 176 192 277 322 329 339 318 264 233 225 217 214 204 192 204 220 220 210 212 213 219 235 231 224 211 200 196 203 208 230 235
193 240 232 229 230 204 222 218 205 229 171 248 301 298 230 332 338 346 329 323 301 240 213 207 200 210 210 198 226 220 207 206 211 216 226 225 222 210 195 189 184 185 178 191
260 225 218 221 232 226 226 219 217 225 262 249 279 6 355 336 331 326 327 328 312 267 237 210 200 226 208 204 228 221 204 200 208 212 217 219 217 214 206 198 189 188 193 194
290 226 224 250 273 184 200 205 214 221 227 271 271 288 303 312 309 309 310 309 324 281 254 223 198 215 206 215 226 220 198 196 207 206 210 214 214 212 208 204 202 203 207 211
250 192 196 202 152 149 172 195 217 231 249 265 288 292 306 309 307 280 305 307 321 288 216 220 200 210 209 208 210 195 192 196 204 208 210 215 215 214 212 207 210 213 219 230
326 148 165 122 182 173 253 252 256 258 256 271 285 294 300 308 302 292 303 293 312 303 220 195 194 196 200 199 193 192 192 199 202 201 210 214 214 214 212 210 213 212 216 228
313 93 100 133 222 322 273 188 190 204 289 300 304 303 305 294 293 302 295 292 296 320 223 203 187 187 191 194 184 196 195 197 197 196 209 213 213 210 207 199 200 210 213 225
277 338 201 114 304 200 139 146 116 13 165 288 310 335 333 319 298 287 295 259 268 297 249 200 183 184 179 186 186 189 194 197 195 195 202 211 212 193 191 208 209 219 222 232
246 274 314 315 286 301 125 107 334 353 290 297 342 337 330 341 328 273 292 236 241 286 255 164 146 168 171 175 174 185 185 184 188 192 202 196 196 202 215 218 243 245 252 257
238 241 243 286 311 321 113 264 297 297 245 269 330 335 326 318 302 287 256 206 225 248 236 205 192 118 138 148 152 171 160 175 202 204 205 223 225 209 211 217 237 247 248 248
185 207 222 238 255 283 265 280 329 228 296 319 335 337 330 293 295 276 241 204 211 195 178 167 171 177 91 102 126 146 136 136 134 322 278 235 267 248 241 239 238 246 252 256
173 171 192 215 229 244 218 327 345 299 314 322 330 327 328 8 292 262 242 200 154 136 127 125 114 100 92 91 118 130 117 135 174 193 221 245 235 238 246 247 248 250 255 257
184 201 194 215 223 235 286 316 322 328 341 336 331 349 21 14 168 165 155 150 151 152 143 139 129 141 129 134 146 135 134 211 218 219 224 241 251 252 252 256 255 254 256 258
315 249 243 220 242 269 286 313 320 352 353 337 352 349 76 104 123 137 149 152 164 152 124 110 110 41 343 323 224 210 220 216 221 225 231 236 239 243 247 245 248 254 256 261
315 267 256 260 267 273 286 314 12 25 349 348 335 285 130 121 128 144 154 163 169 88 51 231 216 230 243 247 243 253 254 250 247 246 249 252 251 251 254 258 262 267 271 275
295 296 262 247 264 265 267 244 239 326 19 60 93 148 154 136 158 165 173 194 200 185 132 308 261 247 255 263 265 263 264 264 262 264 266 271 276 277 279 280 280 280 280 280